Regional Weather Roundup
Issued by NWS State College, PA

Home | Current Version | Previous Version | Graphics & Text | Print | Product List | Glossary On
Versions: 1 2 3 4 5 6 7 8 9 10 11 12 13 14 15 16 17 18 19 20 21 22 23 24 25 26 27 28 29 30 31 32 33 34 35 36 37 38 39 40 41 42 43 44 45 46 47 48 49 50
000
ASUS41 KCTP 242010
RWRCTP

REGIONAL WEATHER ROUNDUP
NATIONAL WEATHER SERVICE STATE COLLEGE PA
400 PM EDT THU APR 24 2014

Note: "fair" indicates few or no clouds below 12,000 feet with no
significant weather and/or obstructions to visibility.

* = STATION THAT DOES NOT REPORT PRECIPITATION /E.G. RAIN...SNOW...ETC/
    THUNDER OR FOG.

PAZ002>004-007>009-013>016-020>023-029>032-242100-
WESTERN PENNSYLVANIA

CITY           SKY/WX    TMP DP  RH WIND       PRES   REMARKS
ERIE           SUNNY     50  13  22 NE13      30.09F
MEADVILLE      SUNNY     55  19  24 CALM      30.04F
FRANKLIN*      SUNNY     55  18  22 CALM      30.06F
NEW CASTLE     FAIR      56  20  24 CALM      30.05F
BEAVER COUNTY  SUNNY     57  19  23 E3        30.03F
BUTLER*        SUNNY     57  19  23 SW5       30.05F
PITTSBURGH INT PTSUNNY   58  16  19 NE6       30.03F
PITTSBURGH     SUNNY     59  16  18 NE7       30.02F
INDIANA*       SUNNY     57  21  24 N5        30.04F
LATROBE        SUNNY     55  19  24 N6        30.05F
WASHINGTON CO* SUNNY     57  21  24 N3        30.06F
$$

PAZ004>006-010>012-017>019-024>028-033>037-041-042-045-046-049>053-242100-
CENTRAL PENNSYLVANIA

CITY           SKY/WX    TMP DP  RH WIND       PRES   REMARKS
BRADFORD       SUNNY     53  12  19 W3        30.02F
DUBOIS         SUNNY     57  14  18 N12       30.02F
CLEARFIELD     SUNNY     58  11  15 VRB6      30.01F
JOHNSTOWN      SUNNY     54  19  25 NE8       30.01F
ALTOONA        SUNNY     58  19  22 NW12      30.02F
STATE COLLEGE  SUNNY     61  10  13 N12       29.99F
WILLIAMSPORT   SUNNY     61  13  15 N13G22    29.99F
SELINSGROVE    SUNNY     63  17  17 NE10G22   29.99F
FT INDIANTOWN  SUNNY     61  12  14 W13G24    29.98F
CAPITAL CITY   SUNNY     61  14  16 N8        30.00F
HARRISBURG     MOSUNNY   66  18  15 NW14      29.98F
YORK           SUNNY     61  19  19 N9        30.00F
$$

PAZ038>040-043-044-047-048-054-055-060>062-067>071-242100-
EASTERN PENNSYLVANIA

CITY           SKY/WX    TMP DP  RH WIND       PRES   REMARKS
SCRANTON       SUNNY     57  14  18 N17G30    29.98F
MOUNT POCONO   SUNNY     52  10  18 N18G29    29.94F
ALLENTOWN      SUNNY     60  14  16 NW21G31   29.96F
QUAKERTOWN*    CLEAR     59  16  18 W10G22    29.96F
READING        SUNNY     61  19  19 NW14G25   29.97F
LANCASTER      SUNNY     59  18  20 NW17G24   29.99F
COATESVILLE    CLEAR     57  18  21 NW9       29.98F
POTTSTOWN      SUNNY     60  17  18 NW13G23   29.97F
BLUE BELL      SUNNY     63  12  14 NW7G23    29.94F
DOYLESTOWN     SUNNY     60  17  18 N13G24    29.93F
WILLOW GROVE   NOT AVBL
NORTH PHILA    SUNNY     63  13  14 NW17G31   29.96F
PHILADELPHIA   SUNNY     63  14  15 NW20G29   29.96F
$$



USA.gov is the U.S. government's official web portal to all federal, state and local government web resources and services.